Simultaneous Nadir Overpasses (SNOs) Predictions

Prediction of SNOs between GOES-17 and NOAA-20 Satellite Orbit:

Table of predicted SNOs for the next 14.0 days since TLE Epoch: 9/7/2024
Index Date Time (GOES-17) GOES-17 Lat,Lon NOAA-20 Lat,Lon Distance(km) Time Diff (sec)
1 09/07/2024 08:25:34 -0.01,-104.70 0.08,-105.06 40.67 80
2 09/08/2024 08:04:08 -0.01,-104.70 -0.93,-100.52 476.20 80
3 09/09/2024 20:26:01 0.01,-104.71 -0.26,-105.81 126.42 80
4 09/10/2024 20:09:55 0.02,-104.71 0.77,-101.28 390.58 80
5 09/12/2024 08:31:40 -0.02,-104.70 0.38,-106.55 210.43 80
6 09/13/2024 08:10:13 -0.02,-104.69 -0.65,-102.01 306.14 80
7 09/14/2024 20:32:06 0.03,-104.69 -0.56,-107.30 297.16 80
8 09/15/2024 20:15:59 0.03,-104.69 0.48,-102.77 219.95 80
9 09/17/2024 08:37:44 -0.03,-104.69 0.70,-108.02 380.08 80
10 09/18/2024 08:16:16 -0.03,-104.68 -0.29,-103.48 136.93 80
11 09/19/2024 20:38:08 0.03,-104.68 -0.89,-108.77 466.23 80
12 09/20/2024 20:22:01 0.03,-104.68 0.11,-104.23 51.10 80
